• In Uzbekistan
  • List of Countries
  • For 7 days
  • Water Temperature
  • Satellite Maps
  • Weather Map
  • Weather Widgets
  • user-avatar
    Login

    Hourly Weather Rawson

    Today, 11 December, Tuesday

    Time Temperature Precipitation Wind Pressure Humidity
    00:00 +25°C° 0 mm 5 mps 753 mmHg 27%
    01:00 +25°C° 0 mm 5 mps 753 mmHg 27%
    02:00 +23°C° 0 mm 6 mps 753 mmHg 28%
    03:00 +22°C° 0 mm 5 mps 753 mmHg 29%
    04:00 +21°C° 0 mm 5 mps 754 mmHg 30%
    05:00 +20°C° 0 mm 4 mps 754 mmHg 31%
    06:00 +21°C° 0 mm 5 mps 754 mmHg 28%
    07:00 +22°C° 0 mm 5 mps 754 mmHg 25%
    08:00 +23°C° 0 mm 5 mps 755 mmHg 22%
    09:00 +25°C° 0 mm 5 mps 755 mmHg 21%
    10:00 +26°C° 0 mm 5 mps 755 mmHg 19%
    11:00 +27°C° 0 mm 4 mps 755 mmHg 17%
    12:00 +27°C° 0 mm 5 mps 755 mmHg 17%
    13:00 +28°C° 0 mm 5 mps 755 mmHg 17%
    14:00 +28°C° 0 mm 6 mps 755 mmHg 18%
    15:00 +27°C° 0.1 mm 6 mps 755 mmHg 20%
    16:00 +26°C° 0.1 mm 6 mps 755 mmHg 22%
    17:00 +24°C° 0.1 mm 6 mps 755 mmHg 24%
    18:00 +24°C° 0 mm 6 mps 755 mmHg 23%
    19:00 +24°C° 0 mm 6 mps 756 mmHg 23%
    20:00 +24°C° 0 mm 6 mps 756 mmHg 22%
    21:00 +23°C° 0 mm 6 mps 757 mmHg 22%
    22:00 +22°C° 0 mm 6 mps 757 mmHg 23%
    23:00 +22°C° 0 mm 5 mps 758 mmHg 24%

    Tomorrow, 12 December, Wednesday

    Time Temperature Precipitation Wind Pressure Humidity
    00:00 +21°C° 0 mm 6 mps 758 mmHg 26%
    01:00 +20°C° 0 mm 7 mps 758 mmHg 28%
    02:00 +18°C° 0 mm 8 mps 758 mmHg 29%
    03:00 +17°C° 0 mm 8 mps 758 mmHg 30%
    04:00 +17°C° 0 mm 7 mps 759 mmHg 31%
    05:00 +16°C° 0 mm 7 mps 759 mmHg 32%
    06:00 +17°C° 0 mm 7 mps 759 mmHg 30%
    07:00 +19°C° 0 mm 6 mps 759 mmHg 28%
    08:00 +20°C° 0 mm 6 mps 760 mmHg 25%
    09:00 +21°C° 0 mm 5 mps 759 mmHg 23%
    10:00 +22°C° 0 mm 4 mps 759 mmHg 20%
    11:00 +24°C° 0 mm 3 mps 759 mmHg 17%
    12:00 +25°C° 0 mm 3 mps 759 mmHg 16%
    13:00 +26°C° 0 mm 4 mps 758 mmHg 15%
    14:00 +27°C° 0 mm 4 mps 758 mmHg 14%
    15:00 +27°C° 0 mm 4 mps 757 mmHg 15%
    16:00 +27°C° 0 mm 5 mps 756 mmHg 16%
    17:00 +28°C° 0 mm 5 mps 756 mmHg 17%
    18:00 +27°C° 0 mm 6 mps 755 mmHg 19%
    19:00 +26°C° 0 mm 8 mps 755 mmHg 22%
    20:00 +24°C° 0 mm 9 mps 755 mmHg 24%
    21:00 +23°C° 0 mm 9 mps 755 mmHg 27%
    22:00 +22°C° 0 mm 9 mps 755 mmHg 31%
    23:00 +22°C° 0 mm 9 mps 755 mmHg 34%

    Day after tomorrow, 13 December, Thursday

    Time Temperature Precipitation Wind Pressure Humidity
    00:00 +21°C° 0 mm 9 mps 754 mmHg 39%
    01:00 +21°C° 0 mm 8 mps 754 mmHg 44%
    02:00 +20°C° 0 mm 8 mps 753 mmHg 48%
    03:00 +20°C° 0 mm 8 mps 753 mmHg 51%
    04:00 +20°C° 0 mm 8 mps 753 mmHg 54%
    05:00 +18°C° 0 mm 8 mps 752 mmHg 57%
    06:00 +22°C° 0 mm 9 mps 752 mmHg 46%
    07:00 +24°C° 0 mm 9 mps 752 mmHg 35%
    08:00 +28°C° 0 mm 10 mps 752 mmHg 25%
    09:00 +29°C° 0.2 mm 9 mps 752 mmHg 24%
    10:00 +31°C° 0.2 mm 9 mps 751 mmHg 22%
    11:00 +32°C° 0.2 mm 8 mps 751 mmHg 21%
    12:00 +32°C° 0.6 mm 8 mps 750 mmHg 21%
    13:00 +32°C° 0.6 mm 8 mps 750 mmHg 20%
    14:00 +32°C° 0.6 mm 8 mps 750 mmHg 20%
    15:00 +31°C° 0.3 mm 8 mps 749 mmHg 23%
    16:00 +31°C° 0.3 mm 8 mps 749 mmHg 26%
    17:00 +29°C° 0.3 mm 9 mps 749 mmHg 29%
    18:00 +28°C° 1.3 mm 7 mps 749 mmHg 36%
    19:00 +27°C° 1.3 mm 6 mps 750 mmHg 43%
    20:00 +26°C° 1.3 mm 5 mps 750 mmHg 49%
    21:00 +23°C° 1.9 mm 5 mps 750 mmHg 53%
    22:00 +22°C° 1.9 mm 6 mps 750 mmHg 57%
    23:00 +21°C° 1.9 mm 6 mps 751 mmHg 61%

    14 December, Friday

    Time Temperature Precipitation Wind Pressure Humidity
    00:00 +20°C° 0.2 mm 6 mps 751 mmHg 60%
    01:00 +20°C° 0.2 mm 6 mps 750 mmHg 59%
    02:00 +20°C° 0.2 mm 6 mps 750 mmHg 59%
    03:00 +20°C° 0.2 mm 6 mps 751 mmHg 54%
    04:00 +19°C° 0.2 mm 6 mps 751 mmHg 50%
    05:00 +19°C° 0.2 mm 6 mps 752 mmHg 46%
    06:00 +20°C° 0 mm 8 mps 752 mmHg 46%
    07:00 +19°C° 0 mm 9 mps 753 mmHg 45%
    08:00 +19°C° 0 mm 11 mps 753 mmHg 45%
    09:00 +21°C° 0 mm 11 mps 754 mmHg 41%
    10:00 +22°C° 0 mm 11 mps 754 mmHg 38%
    11:00 +23°C° 0 mm 11 mps 754 mmHg 35%
    12:00 +23°C° 0 mm 11 mps 754 mmHg 35%
    13:00 +22°C° 0 mm 10 mps 755 mmHg 36%
    14:00 +22°C° 0 mm 10 mps 755 mmHg 36%
    15:00 +22°C° 0 mm 9 mps 755 mmHg 37%
    16:00 +21°C° 0 mm 8 mps 755 mmHg 39%
    17:00 +21°C° 0 mm 8 mps 756 mmHg 40%
    18:00 +20°C° 0 mm 7 mps 756 mmHg 45%
    19:00 +17°C° 0 mm 6 mps 756 mmHg 49%
    20:00 +17°C° 0 mm 4 mps 757 mmHg 54%
    21:00 +17°C° 0 mm 4 mps 757 mmHg 56%
    22:00 +17°C° 0 mm 3 mps 757 mmHg 58%
    23:00 +16°C° 0 mm 2 mps 758 mmHg 59%

    15 December, Saturday

    Time Temperature Precipitation Wind Pressure Humidity
    00:00 +17°C° 0 mm 4 mps 758 mmHg 55%
    01:00 +16°C° 0 mm 5 mps 757 mmHg 51%
    02:00 +16°C° 0 mm 6 mps 757 mmHg 47%
    03:00 +16°C° 0 mm 6 mps 757 mmHg 44%
    04:00 +16°C° 0 mm 6 mps 757 mmHg 41%
    05:00 +16°C° 0 mm 7 mps 757 mmHg 39%
    06:00 +17°C° 0 mm 7 mps 757 mmHg 35%
    07:00 +18°C° 0 mm 7 mps 757 mmHg 32%
    08:00 +20°C° 0 mm 7 mps 757 mmHg 29%
    09:00 +22°C° 0 mm 6 mps 756 mmHg 26%
    10:00 +24°C° 0 mm 6 mps 756 mmHg 23%
    11:00 +27°C° 0 mm 6 mps 755 mmHg 20%
    12:00 +28°C° 0 mm 6 mps 754 mmHg 19%
    13:00 +29°C° 0 mm 6 mps 753 mmHg 17%
    14:00 +32°C° 0 mm 6 mps 752 mmHg 16%
    15:00 +33°C° 0 mm 6 mps 751 mmHg 15%
    16:00 +33°C° 0 mm 7 mps 751 mmHg 15%
    17:00 +34°C° 0 mm 7 mps 750 mmHg 15%
    18:00 +33°C° 0 mm 7 mps 749 mmHg 16%
    19:00 +33°C° 0 mm 7 mps 749 mmHg 18%
    20:00 +32°C° 0 mm 7 mps 749 mmHg 20%
    21:00 +31°C° 0 mm 8 mps 749 mmHg 21%
    22:00 +29°C° 0 mm 9 mps 749 mmHg 23%
    23:00 +28°C° 0 mm 9 mps 749 mmHg 25%

    16 December, Sunday

    Time Temperature Precipitation Wind Pressure Humidity
    00:00 +27°C° 0 mm 9 mps 749 mmHg 27%
    01:00 +26°C° 0 mm 10 mps 749 mmHg 30%
    02:00 +24°C° 0 mm 10 mps 749 mmHg 32%
    03:00 +24°C° 0 mm 10 mps 749 mmHg 34%
    04:00 +23°C° 0 mm 11 mps 749 mmHg 36%
    05:00 +22°C° 0 mm 12 mps 749 mmHg 37%
    06:00 +23°C° 0 mm 13 mps 750 mmHg 35%
    07:00 +23°C° 0 mm 13 mps 751 mmHg 33%
    08:00 +23°C° 0 mm 14 mps 752 mmHg 31%
    09:00 +24°C° 0 mm 14 mps 752 mmHg 27%
    10:00 +26°C° 0 mm 13 mps 753 mmHg 23%
    11:00 +27°C° 0 mm 13 mps 754 mmHg 19%
    12:00 +26°C° 0 mm 12 mps 754 mmHg 22%
    13:00 +23°C° 0 mm 12 mps 755 mmHg 26%
    14:00 +22°C° 0 mm 11 mps 756 mmHg 29%
    15:00 +21°C° 0 mm 10 mps 756 mmHg 31%
    16:00 +19°C° 0 mm 10 mps 757 mmHg 32%
    17:00 +17°C° 0 mm 9 mps 757 mmHg 34%
    18:00 +16°C° 0 mm 8 mps 758 mmHg 36%
    19:00 +15°C° 0 mm 7 mps 758 mmHg 38%
    20:00 +14°C° 0 mm 5 mps 758 mmHg 39%
    21:00 +14°C° 0 mm 5 mps 759 mmHg 41%
    22:00 +14°C° 0 mm 5 mps 759 mmHg 42%
    23:00 +14°C° 0 mm 5 mps 759 mmHg 43%
    Show more